Simultaneous Nadir Overpasses (SNOs) Predictions

Prediction of SNOs near US between NOAA-19 and NPP Satellite Orbit:

Table of predicted SNOs near US for the next 10.0 days since TLE Epoch: 5/11/2013
Index Date (NOAA-19) Time (NOAA-19) NOAA-19 Lat,Lon Date (NPP) Time (NPP) NPP Lat,Lon Distance(km) Time Diff (sec)
1 05/20/2013 17:33:54 49.98, -69.69 05/20/2013 17:32:02 49.52, -72.31 194.75 112
2 05/20/2013 19:15:59 50.00, -95.22 05/20/2013 19:13:33 49.58, -97.71 184.65 146
3 05/20/2013 20:58:03 49.97,-120.72 05/20/2013 20:55:02 49.53,-123.06 174.81 181
4 05/21/2013 07:39:19 27.18, -85.76 05/21/2013 07:32:45 27.55, -87.57 183.22 394
5 05/21/2013 09:21:58 25.17,-111.81 05/21/2013 09:14:50 25.49,-113.48 171.75 428
